Wheaton NDB, MN

11:48 AM CDT on August 21, 2017 (GMT -0500)
Wheaton Municipal

Weather History for KETH - August, 2013

Change the Weather History Date:

Wednesday, August 7, 2013

  Actual Average Record
Temperature  
Mean Temperature 67 °F -  
Max Temperature 75 °F 84 °F 101 °F (1983)
Min Temperature 59 °F 59 °F 48 °F (1989)
Cooling Degree Days 2    
Growing Degree Days 17 (Base 50)    
Moisture  
Dew Point 57 °F    
Average Humidity 69    
Maximum Humidity 94    
Minimum Humidity 47    
Precipitation  
Precipitation 0.00 in - - ()
Sea Level Pressure  
Sea Level Pressure 30.02 in    
Wind  
Wind Speed 3 mph (NW)    
Max Wind Speed 8 mph    
Max Gust Speed -    
Visibility 10 miles    
Events      
Averages and records for this station are not official NWS values.
T = Trace of Precipitation, MM = Missing Value Source: NWS Daily Summary

Daily Weather History Graph

Daily Weather History Graph

Search for Another Location

Airport or City:

Trip Planner

Search our weather history database for the weather conditions in past years. The results will help you decide how hot, cold, wet, or windy it might be!

Date:

Astronomy

Aug. 07, 2013 Rise Set
Actual Time 6:16 AM CDT 8:46 PM CDT
Civil Twilight 5:43 AM CDT 9:19 PM CDT
Nautical Twilight 5:01 AM CDT 10:01 PM CDT
Astronomical Twilight 4:13 AM CDT 10:48 PM CDT
Moon 7:12 AM CDT (8/7) 8:46 PM CDT (8/7)
Length of Visible Light 15h 36m
Length of Day
14h 29m
New Moon, 1% of the Moon is Illuminated
Aug 7
New Moon
Aug 14
First Quarter
Aug 20
Full
Aug 28
Last Quarter
Sep 5
New

Hourly Weather History & Observations

Time (CDT) Temp. Dew Point Humidity Pressure Visibility Wind Dir Wind Speed Gust Speed Precip Events Conditions
12:15 AM 64.4 °F 62.6 °F 94% 29.91 in 10.0 mi NNW 8.1 mph - N/A   Overcast
12:35 AM 64.4 °F 60.8 °F 88% 29.91 in 10.0 mi NNW 6.9 mph - N/A   Overcast
12:55 AM 62.6 °F 60.8 °F 94% 29.91 in 10.0 mi NNW 5.8 mph - N/A   Mostly Cloudy
1:14 AM 62.6 °F 60.8 °F 94% 29.92 in 10.0 mi NW 8.1 mph - N/A   Scattered Clouds
1:34 AM 62.6 °F 60.8 °F 94% 29.93 in 10.0 mi NW 5.8 mph - N/A   Clear
8:54 AM 60.8 °F 55.4 °F 82% 30.03 in 10.0 mi WNW 4.6 mph - N/A   Clear
9:15 AM 62.6 °F 57.2 °F 82% 30.03 in 10.0 mi NW 3.5 mph - N/A   Clear
9:35 AM 62.6 °F 57.2 °F 82% 30.03 in 10.0 mi NNW 4.6 mph - N/A   Clear
9:55 AM 64.4 °F 59.0 °F 83% 30.03 in 10.0 mi WNW 4.6 mph - N/A   Clear
10:15 AM 66.2 °F 57.2 °F 73% 30.03 in 10.0 mi Calm Calm - N/A   Clear
10:34 AM 66.2 °F 57.2 °F 73% 30.03 in 10.0 mi Calm Calm - N/A   Clear
10:54 AM 68.0 °F 57.2 °F 68% 30.04 in 10.0 mi NW 3.5 mph - N/A   Clear
11:14 AM 69.8 °F 57.2 °F 64% 30.04 in 10.0 mi Calm Calm - N/A   Clear
11:34 AM 69.8 °F 57.2 °F 64% 30.04 in 10.0 mi North 3.5 mph - N/A   Clear
11:54 AM 69.8 °F 57.2 °F 64% 30.05 in 10.0 mi Calm Calm - N/A   Clear
12:15 PM 69.8 °F 55.4 °F 60% 30.05 in 10.0 mi Calm Calm - N/A   Scattered Clouds
12:34 PM 71.6 °F 55.4 °F 57% 30.05 in 10.0 mi Calm Calm - N/A   Clear
12:55 PM 71.6 °F 55.4 °F 57% 30.05 in 10.0 mi Calm Calm - N/A   Clear
1:14 PM 71.6 °F 57.2 °F 60% 30.05 in 10.0 mi Calm Calm - N/A   Clear
1:35 PM 73.4 °F 55.4 °F 53% 30.05 in 10.0 mi WSW 4.6 mph - N/A   Scattered Clouds
1:54 PM 73.4 °F 57.2 °F 57% 30.04 in 10.0 mi Calm Calm - N/A   Scattered Clouds
2:15 PM 71.6 °F 55.4 °F 57% 30.04 in 10.0 mi Calm Calm - N/A   Scattered Clouds
2:34 PM 73.4 °F 57.2 °F 57% 30.04 in 10.0 mi West 3.5 mph - N/A   Scattered Clouds
2:54 PM 75.2 °F 57.2 °F 53% 30.03 in 10.0 mi Calm Calm - N/A   Clear
3:14 PM 73.4 °F 57.2 °F 57% 30.03 in 10.0 mi Calm Calm - N/A   Clear
3:34 PM 75.2 °F 57.2 °F 53% 30.03 in 10.0 mi NNW 3.5 mph - N/A   Clear
3:54 PM 75.2 °F 57.2 °F 53% 30.03 in 10.0 mi NNW 3.5 mph - N/A   Clear
4:14 PM 73.4 °F 57.2 °F 57% 30.03 in 10.0 mi ESE 3.5 mph - N/A   Clear
4:34 PM 75.2 °F 57.2 °F 53% 30.02 in 10.0 mi Calm Calm - N/A   Scattered Clouds
4:54 PM 75.2 °F 57.2 °F 53% 30.02 in 10.0 mi Calm Calm - N/A   Clear
5:14 PM 75.2 °F 57.2 °F 53% 30.02 in 10.0 mi Calm Calm - N/A   Clear
5:34 PM 75.2 °F 55.4 °F 50% 30.02 in 10.0 mi WNW 3.5 mph - N/A   Clear
5:55 PM 75.2 °F 55.4 °F 50% 30.02 in 10.0 mi Calm Calm - N/A   Clear
6:14 PM 75.2 °F 53.6 °F 47% 30.02 in 10.0 mi Calm Calm - N/A   Clear
6:34 PM 73.4 °F 53.6 °F 50% 30.02 in 10.0 mi Calm Calm - N/A   Clear
6:55 PM 73.4 °F 53.6 °F 50% 30.02 in 10.0 mi Calm Calm - N/A   Clear
7:14 PM 73.4 °F 53.6 °F 50% 30.02 in 10.0 mi Calm Calm - N/A   Clear
7:34 PM 73.4 °F 55.4 °F 53% 30.02 in 10.0 mi Calm Calm - N/A   Clear
7:54 PM 71.6 °F 59.0 °F 64% 30.02 in 10.0 mi Calm Calm - N/A   Scattered Clouds
8:15 PM 71.6 °F 57.2 °F 60% 30.02 in 10.0 mi Calm Calm - N/A   Scattered Clouds
8:34 PM 68.0 °F 62.6 °F 83% 30.02 in 10.0 mi Calm Calm - N/A   Clear
8:54 PM 66.2 °F 60.8 °F 83% 30.03 in 10.0 mi Calm Calm - N/A   Scattered Clouds
9:14 PM 64.4 °F 60.8 °F 88% 30.02 in 10.0 mi SE 3.5 mph - N/A   Scattered Clouds
9:34 PM 64.4 °F 59.0 °F 83% 30.02 in 10.0 mi SE 4.6 mph - N/A   Clear
9:54 PM 62.6 °F 59.0 °F 88% 30.03 in 10.0 mi Calm Calm - N/A   Clear
10:14 PM 60.8 °F 57.2 °F 88% 30.03 in 10.0 mi SE 4.6 mph - N/A   Clear
10:34 PM 60.8 °F 57.2 °F 88% 30.03 in 10.0 mi SE 3.5 mph - N/A   Clear
10:54 PM 60.8 °F 57.2 °F 88% 30.03 in 10.0 mi SE 3.5 mph - N/A   Clear
11:14 PM 60.8 °F 57.2 °F 88% 30.03 in 10.0 mi SE 5.8 mph - N/A   Clear
11:34 PM 59.0 °F 55.4 °F 88% 30.03 in 10.0 mi Calm Calm - N/A   Clear
11:54 PM 60.8 °F 55.4 °F 82% 30.03 in 10.0 mi South 6.9 mph - N/A   Scattered Clouds